694  
NZUS93 KARX 281359  
HRRWXR  
 
CURRENT HOURLY OBSERVATIONS ACROSS  
MUCH OF THE UPPER MISSISSIPPI VALLEY  
NATIONAL WEATHER SERVICE LA CROSSE WI  
900 AM CDT WED JUN 28 2017  
 
   
..SOUTHEAST MINNESOTA
 
 
 
CITY SKY/WX TMP DP RH WIND PRES REMARKS  
ROCHESTER RAIN 63 62 97 S17 29.73S FOG  
ROCHESTER/MAYO NOT AVBL  
WINONA RAIN 66 63 88 S6 29.71S  
AUSTIN RAIN 63 61 94 S13G18 29.70S  
ALBERT LEA NOT AVBL  
DODGE CENTER DRIZZLE 64 61 88 SE10 29.71S  
PRESTON LGT RAIN 62 60 93 S18G26 29.74R  
OWATONNA CLOUDY 64 61 88 SE13 29.68S  
FARIBAULT RAIN 66 63 88 SE12G18 29.67S  

 
   
..ELSEWHERE IN MINNESOTA
 
 
 
CITY SKY/WX TMP DP RH WIND PRES REMARKS  
MINNEAPOLIS CLOUDY 67 62 84 S13 29.62F  
INTNL FALLS CLOUDY 59 49 69 E9 29.62F  
DULUTH CLOUDY 56 49 77 E13 29.66F  
RED WING LGT RAIN 66 61 82 S7 29.67R  
REDWOOD FALLS CLOUDY 69 63 81 S15 29.58R  
MANKATO LGT RAIN 67 65 93 S7 29.64F  
WORTHINGTON CLOUDY 70 63 78 SW24G30 29.62S  
FAIRMONT CLOUDY 71 63 75 SW15 29.62F  

 
   
..SOUTHWEST WISCONSIN
 
 
 
CITY SKY/WX TMP DP RH WIND PRES REMARKS  
LA CROSSE LGT RAIN 69 65 86 S18G26 29.73S  
PRAIRIE DU CHI CLOUDY 63 62 96 SE12 29.80F  
BOSCOBEL CLOUDY 65 62 90 S9 29.81F  
LONE ROCK LGT RAIN 62 59 90 E12 29.82F  
PLATTEVILLE CLOUDY 62 62 100 SE14 29.88F  
FORT MC COY LGT RAIN 61 60 96 S12 29.75F  
CAMP DOUGLAS LGT RAIN 61 59 94 S14 29.77F  
MAUSTON-NEW LI RAIN 61 58 92 S7 29.82F  
VIROQUA PTSUNNY 63 63 100 S16 29.79F  
WIS DELLS RAIN 59 56 89 S12 29.87S  

 
   
..ELSEWHERE IN WISCONSIN
 
 
 
CITY SKY/WX TMP DP RH WIND PRES REMARKS  
MILWAUKEE CLOUDY 67 52 58 S14 29.95F  
MADISON LGT RAIN 63 56 78 S13 29.90S  
GREEN BAY CLOUDY 65 54 67 S12 29.87F  
EAU CLAIRE NOT AVBL  
BLACK RVR FLS PTSUNNY 62 62 99 SW3 29.73F  
MEDFORD CLOUDY 57 54 89 SE12G21 29.78F THUNDER  
WAUSAU TSTM 57 56 96 S13G22 29.81F VSB 3/4  
WIS RAPIDS CLOUDY 60 56 86 S8 29.82F  
MARSHFIELD CLOUDY 60 54 80 SE13 29.77F  
RICE LAKE CLOUDY 61 52 71 SE9 29.71R  

 
   
..NORTHEAST IOWA
 
 
 
CITY SKY/WX TMP DP RH WIND PRES REMARKS  
WATERLOO CLOUDY 67 64 90 S15 29.73R  
DUBUQUE CLOUDY 63 61 93 S16G23 29.86F  
DECORAH CLOUDY 64 63 94 S12G18 29.76S  
MASON CITY CLOUDY 68 62 81 S9 29.72R  
CHARLES CITY CLOUDY 64 64 100 SE9 29.75S FOG  
OELWEIN CLOUDY 66 66 100 SE20G26 29.77R  

 
   
..ELSEWHERE IN IOWA
 
 
 
CITY SKY/WX TMP DP RH WIND PRES REMARKS  
DES MOINES CLOUDY 73 61 65 S15 29.71F  
IOWA CITY CLOUDY 68 65 90 SE15 29.83F  
FORT DODGE CLOUDY 70 63 78 S13G20 29.69F  
MARSHALLTOWN CLOUDY 69 63 81 SW9 29.71R  
CEDAR RAPIDS CLOUDY 66 66 100 SE15G21 29.77F  

 
   
..NORTHERN ILLINOIS
 
 
 
CITY SKY/WX TMP DP RH WIND PRES REMARKS  
CHICAGO-OHARE CLOUDY 67 49 52 S15G25 29.99S  
CHICAGO-MIDWAY CLOUDY 69 51 52 S15G24 30.01S  
MOLINE TSTM 65 62 90 E3 29.94R FOG  
ROCKFORD TSTM 64 56 75 S14G22 29.98R  
PEORIA CLOUDY 67 58 72 S13 29.98S  

 
 
NOTE: "FAIR" INDICATES FEW OR NO CLOUDS BELOW 12,000 FEET WITH NO  
SIGNIFICANT WEATHER AND/OR OBSTRUCTIONS TO VISIBILITY. WIND  
SPEEDS ARE IN MILES-PER-HOUR.  
 
 
CLICK HERE TO GO TO PREVIOUS BULLETINS.

The Nexlab WI Page
The Nexlab IA Page
The Nexlab MN Page Main Text Page